Regional Weather Roundup
Issued by NWS

Home | Current Version | Previous Version | Text Only | Print | Product List | Glossary On
Versions: 1 2 3 4 5 6 7 8 9 10 11 12 13 14 15 16 17 18 19 20 21 22 23 24 25 26 27 28 29 30 31 32 33 34 35 36 37 38 39 40 41 42 43 44 45 46 47 48 49 50
000
ASUS43 KOAX 291302
RWRNE

WEATHER ROUNDUP FOR NEBRASKA
NATIONAL WEATHER SERVICE OMAHA NE
800 AM CDT THU JUN 29 2017

NOTES: SATELLITE DATA IS BEING USED TO AUGMENT CLOUD COVER ABOVE
       12000 FEET.
       "FAIR" INDICATES FEW OR NO CLOUDS BELOW 12,000 FEET WITH NO
       SIGNIFICANT WEATHER AND/OR OBSTRUCTIONS TO VISIBILITY.

  * THESE STATIONS DO NOT REPORT WEATHER SUCH AS RAIN...SNOW OR FOG.

NEZ001>004-019>022-054>056-291400-
NEBRASKA PANHANDLE

CITY           SKY/WX    TMP DP  RH WIND       PRES   REMARKS
SCOTTSBLUFF    SUNNY     59  50  72 NW10      29.93R
ALLIANCE       SUNNY     56  52  86 W7        29.89R
CHADRON        SUNNY     56  50  80 W8        29.88R
GORDON         FAIR      57  53  87 CALM      29.84R
KIMBALL        SUNNY     59  51  76 NW6       29.95R
SIDNEY         SUNNY     58  52  80 W10       29.92R
$$

NEZ057>060-069>072-079>082-291400-
SOUTHWEST NEBRASKA

CITY           SKY/WX    TMP DP  RH WIND       PRES   REMARKS
NORTH PLATTE   MOSUNNY   62  58  86 CALM      29.78R
IMPERIAL       SUNNY     64  55  72 S5        29.81R
LEXINGTON      CLOUDY    68  58  70 SE6       29.75R
MCCOOK         MOSUNNY   68  59  73 NE8       29.75S
OGALLALA       SUNNY     65  57  75 CALM      29.82R
$$

NEZ005>010-023>029-035>040-094-291400-
NORTH CENTRAL NEBRASKA

CITY           SKY/WX    TMP DP  RH WIND       PRES   REMARKS
VALENTINE      MOSUNNY   66  52  60 NE3       29.80R
AINSWORTH      CLOUDY    60  57  91 N3        29.79R
BROKEN BOW     CLOUDY    68  57  68 CALM      29.74S
O`NEILL        CLOUDY    63  58  84 NE6       29.75R
ORD            CLOUDY    65  57  75 CALM      29.70S
THEDFORD       CLOUDY    62  58  88 SW3       29.79R
$$

NEZ041-046>049-061>064-073>077-083>087-291400-
SOUTH CENTRAL NEBRASKA

CITY           SKY/WX    TMP DP  RH WIND       PRES   REMARKS
GRAND ISLAND   CLOUDY    66  65  96 S20G29    29.75F
AURORA         CLOUDY    66  64  92 S14       29.80F
HASTINGS       CLOUDY    64  61  90 N3        29.77F
HEBRON         LGT RAIN  64  63  94 NE15      29.77F
HOLDREGE       CLOUDY    66  60  81 SE8       29.70F
KEARNEY *      CLOUDY    66  61  82 E3G21     29.69F
YORK           TSTM      64  63  94 SW15      29.85R
$$

NEZ011>018-030>034-042>045-291400-
NORTHEAST NEBRASKA

CITY           SKY/WX    TMP DP  RH WIND       PRES   REMARKS
NORFOLK        CLOUDY    67  61  81 E10       29.69F
ALBION         CLOUDY    70  61  74 SW3       29.71R
BLAIR          CLOUDY    72  68  87 SW7       29.78R
FREMONT        CLOUDY    70  62  74 SW13      29.78R
TEKAMAH        CLOUDY    69  65  86 S5        29.76R
WAYNE          CLOUDY    66  66  99 CALM      29.73F
$$

NEZ050>053-065>068-078-088>093-291400-
SOUTHEAST NEBRASKA

CITY           SKY/WX    TMP DP  RH WIND       PRES   REMARKS
LINCOLN        LGT RAIN  68  62  81 SW14      29.84R
OMAHA EPPLEY   CLOUDY    75  67  76 VRB3      29.77R
BEATRICE       RAIN      66  64  91 W16       29.90R
FALLS CITY     CLOUDY    69  68  96 S5        29.79R
NEBRASKA CITY  CLOUDY    68  68 100 SW6       29.84R
PLATTSMOUTH    CLOUDY    70  66  87 S12       29.80R
$$

NEZ044-045-051>053-067-291400-
OMAHA AREA

CITY           SKY/WX    TMP DP  RH WIND       PRES   REMARKS
OMAHA EPPLEY   CLOUDY    75  67  76 VRB3      29.77R
BLAIR          CLOUDY    72  68  87 SW7       29.78R
FREMONT        CLOUDY    70  62  74 SW13      29.78R
MILLARD        CLOUDY    74  69  85 SW5       29.79R
OFFUTT AFB     CLOUDY    71  67  85 S7        29.78R
PLATTSMOUTH    CLOUDY    70  66  87 S12       29.80R
WAHOO          FAIR      69  61  75 SW16      29.80R
$$



USA.gov is the U.S. government's official web portal to all federal, state and local government web resources and services.